Temp
-1 -1 -1 -1 -1 -1 -1 -1 -1 -0 0 1 2 3 6 8 12 12 12 14 15 15 13 14 15 15 15 14 14 14 14 15 14 12 14 13 13 12 13 13 14 14 14
-1 -1 -2 -1 -1 -1 -2 -2 -2 -2 -1 -0 1 2 3 6 11 13 13 14 15 14 14 13 13 14 15 15 15 14 13 13 15 12 12 13 12 13 13 13 12 14 14
-2 -2 -2 -2 -2 -2 -2 -3 -3 -3 -2 -2 -1 0 1 2 5 9 13 15 15 14 14 13 13 13 13 14 14 13 13 13 14 15 12 12 12 12 13 13 13 13 13
-2 -2 -2 -2 -2 -2 -3 -3 -3 -3 -3 -3 -2 -2 -1 0 1 4 10 13 13 14 14 13 13 14 14 14 15 15 13 13 13 14 13 13 12 12 12 12 12 12 12
-2 -2 -3 -2 -2 -2 -2 -3 -3 -4 -4 -4 -3 -3 -2 -1 -1 1 6 10 14 12 14 14 13 13 14 14 15 13 13 13 13 13 13 13 13 13 12 12 11 11 11
-3 -3 -3 -3 -3 -3 -3 -3 -4 -4 -4 -4 -4 -3 -3 -3 -2 -0 2 7 8 6 11 12 11 13 14 14 14 13 13 13 13 13 13 13 13 13 12 10 10 6 6
-4 -4 -3 -4 -4 -4 -3 -3 -4 -4 -5 -5 -5 -4 -3 -3 -3 -1 -1 0 1 0 0 3 6 6 9 11 13 13 13 13 13 13 13 13 12 13 12 11 9 9 8
-4 -4 -4 -5 -5 -4 -4 -4 -4 -4 -5 -5 -5 -5 -4 -3 -4 -3 -2 -1 0 -1 -2 -2 -0 2 3 4 6 9 9 9 10 11 12 11 12 12 11 13 11 7 5
-4 -4 -5 -5 -6 -6 -6 -6 -5 -6 -6 -5 -6 -5 -5 -4 -4 -4 -4 -4 -3 -2 -2 -3 -3 -2 0 1 3 2 4 4 4 7 7 8 9 10 10 9 7 4 0
-4 -4 -4 -5 -6 -6 -6 -7 -6 -6 -7 -7 -6 -6 -6 -5 -4 -4 -4 -4 -4 -4 -4 -4 -3 -4 -4 -1 -0 -1 -2 -1 1 2 3 3 4 6 7 8 8 6 0
-3 -4 -4 -5 -6 -6 -7 -7 -7 -7 -7 -7 -7 -6 -6 -6 -5 -4 -4 -4 -5 -5 -5 -4 -5 -5 -4 -4 -4 -4 -4 -4 -1 -0 -0 0 1 2 3 4 5 6 3
-4 -4 -5 -5 -6 -6 -7 -7 -7 -7 -7 -7 -7 -7 -6 -6 -6 -5 -5 -5 -5 -5 -5 -5 -5 -5 -5 -5 -5 -5 -4 -5 -4 -3 -3 -4 -3 -2 -1 1 2 4 3
-4 -5 -5 -5 -6 -6 -7 -7 -7 -7 -7 -7 -7 -7 -6 -6 -6 -6 -6 -6 -6 -6 -6 -6 -5 -5 -5 -5 -5 -5 -5 -5 -6 -6 -6 -6 -5 -4 -3 -2 -1 0 2
-5 -5 -5 -5 -5 -6 -7 -7 -7 -7 -7 -7 -7 -7 -7 -6 -7 -7 -7 -7 -6 -6 -7 -6 -6 -6 -6 -6 -5 -5 -5 -6 -6 -6 -6 -6 -5 -4 -4 -4 -3 -3 -2
-5 -5 -5 -5 -5 -6 -6 -6 -7 -8 -7 -7 -7 -8 -7 -7 -7 -7 -7 -8 -8 -8 -7 -8 -8 -8 -8 -7 -7 -6 -6 -6 -6 -6 -6 -6 -6 -6 -6 -5 -4 -4 -5
-6 -6 -6 -6 -6 -6 -6 -6 -7 -8 -8 -8 -7 -7 -8 -8 -8 -8 -8 -8 -8 -9 -9 -9 -9 -9 -9 -9 -8 -8 -7 -7 -6 -6 -6 -6 -6 -6 -6 -6 -6 -6 -6
-6 -6 -6 -6 -6 -7 -7 -8 -9 -8 -8 -9 -9 -8 -9 -9 -10 -10 -10 -10 -9 -10 -10 -11 -11 -10 -10 -10 -9 -9 -9 -8 -7 -7 -7 -7 -7 -6 -6 -6 -6 -6 -7
-6 -7 -7 -7 -7 -7 -8 -8 -9 -9 -10 -9 -9 -10 -10 -10 -11 -11 -11 -10 -12 -12 -12 -12 -12 -12 -12 -11 -11 -10 -9 -9 -8 -8 -8 -7 -7 -7 -7 -7 -7 -7 -7
-7 -8 -8 -8 -8 -8 -9 -9 -9 -9 -9 -10 -10 -10 -11 -11 -11 -12 -12 -13 -14 -14 -13 -14 -14 -13 -13 -12 -12 -11 -11 -10 -10 -9 -9 -8 -8 -8 -8 -8 -8 -7 -7
-8 -9 -9 -9 -9 -10 -10 -10 -10 -10 -10 -10 -11 -11 -11 -11 -12 -12 -13 -13 -13 -14 -14 -14 -14 -14 -14 -14 -13 -12 -12 -11 -11 -11 -10 -9 -8 -8 -8 -8 -8 -8 -9
-9 -10 -10 -10 -10 -10 -11 -11 -11 -11 -11 -11 -11 -11 -11 -11 -12 -12 -13 -13 -14 -14 -14 -15 -15 -15 -15 -15 -14 -14 -14 -14 -13 -12 -11 -10 -9 -8 -8 -8 -8 -9 -9
-10 -10 -10 -10 -11 -11 -11 -11 -11 -11 -12 -12 -12 -12 -12 -12 -12 -13 -13 -14 -14 -14 -14 -15 -15 -16 -16 -16 -16 -15 -15 -15 -14 -13 -12 -11 -11 -10 -9 -9 -9 -9 -9
-10 -10 -11 -11 -11 -11 -11 -11 -11 -12 -12 -12 -12 -12 -12 -12 -12 -13 -13 -14 -14 -14 -15 -15 -15 -16 -16 -16 -17 -17 -17 -17 -16 -15 -14 -12 -11 -11 -10 -10 -10 -10 -9
-11 -11 -11 -12 -12 -12 -12 -13 -13 -13 -13 -13 -12 -12 -13 -13 -13 -13 -13 -14 -14 -14 -15 -15 -15 -16 -16 -16 -17 -17 -17 -17 -17 -16 -15 -14 -13 -12 -11 -11 -11 -11 -11
-12 -12 -13 -13 -13 -14 -14 -14 -15 -15 -15 -16 -15 -14 -13 -13 -13 -13 -14 -14 -14 -14 -14 -15 -15 -16 -16 -16 -16 -17 -17 -17 -17 -16 -15 -15 -14 -13 -13 -13 -13 -12 -12
-13 -13 -14 -14 -15 -15 -16 -16 -17 -17 -17 -17 -17 -17 -17 -16 -15 -14 -14 -14 -14 -15 -15 -15 -15 -16 -16 -16 -17 -17 -17 -18 -18 -18 -17 -16 -15 -14 -14 -14 -14 -14 -14
Height
754 753 751 748 745 738 731 726 719 712 704 698 692 685 677 670 663 663 665 666 668 669 671 673 674 679 683 687 690 696 702 705 709 714 717 719 721 725 729 732 737 740 745
759 760 757 751 744 738 732 726 719 712 705 698 691 686 676 667 658 655 654 655 659 661 662 665 668 670 672 678 683 691 697 699 703 705 709 713 717 721 724 726 731 735 738
765 761 758 752 745 739 734 727 718 713 707 698 692 687 676 668 658 651 649 648 650 652 655 656 657 662 667 673 678 685 690 693 697 694 703 708 712 717 720 722 726 729 733
768 763 758 754 749 743 738 728 723 717 711 702 695 690 681 672 661 653 646 644 647 647 646 648 650 654 660 664 669 676 682 689 688 692 693 700 705 710 714 716 720 723 727
770 764 760 758 752 747 741 734 728 722 714 707 703 695 683 675 666 653 647 640 635 640 634 639 644 646 652 662 666 670 672 676 679 683 688 693 699 702 705 710 715 717 720
772 767 764 761 757 752 744 739 735 726 718 716 709 699 689 678 671 658 650 642 642 639 635 636 629 644 652 656 660 661 664 665 670 676 679 687 691 695 700 703 708 714 719
774 770 768 765 760 754 749 744 739 731 728 724 714 706 696 688 675 666 658 649 646 648 641 643 643 648 651 653 651 654 655 660 666 671 674 680 684 690 694 697 701 704 708
777 775 773 769 765 761 754 748 744 741 737 731 722 715 704 696 684 675 664 658 655 652 657 652 653 652 653 655 653 647 653 659 662 667 671 675 679 684 687 689 691 698 703
783 782 779 776 771 766 760 756 751 747 743 738 731 721 715 709 699 686 678 675 671 666 665 669 658 659 654 660 655 652 653 656 662 665 667 671 674 678 681 684 686 692 700
791 788 784 781 776 771 767 763 757 753 751 746 738 732 726 719 711 700 691 685 680 680 679 671 665 668 664 663 663 663 660 659 661 664 666 669 671 672 675 676 678 682 690
795 791 789 784 781 778 774 768 762 758 755 750 745 740 734 728 720 712 705 699 696 692 687 681 681 680 669 669 672 672 667 671 665 665 667 668 671 672 672 674 674 676 680
797 795 792 789 787 783 779 775 769 764 760 757 753 748 742 736 730 723 719 714 708 702 699 697 691 691 680 681 676 682 673 678 676 669 671 673 674 676 675 674 676 676 678
802 799 796 794 791 788 784 780 774 771 767 764 761 757 751 745 738 733 728 723 720 716 714 709 703 695 693 689 687 689 683 684 683 679 678 678 681 681 680 678 677 677 680
805 802 800 798 796 793 790 786 783 778 775 771 767 763 758 752 747 742 737 732 727 722 719 714 711 708 705 702 697 697 694 691 691 689 691 688 687 683 685 682 680 682 683
808 807 804 802 798 796 793 791 789 786 783 779 775 771 766 760 757 753 747 740 736 732 726 721 718 716 715 713 709 705 705 703 703 699 696 696 691 689 690 689 686 687 687
811 809 806 804 801 799 797 796 795 792 789 786 782 778 775 772 767 761 755 750 742 737 733 732 731 730 727 724 720 716 715 715 712 708 703 700 697 697 697 696 694 694 696
814 812 810 808 806 804 801 799 796 795 793 790 787 783 780 777 772 767 762 757 752 746 744 744 744 741 737 734 731 726 724 722 717 714 711 707 705 704 702 702 703 704 703
817 816 814 813 810 808 806 803 801 799 795 793 789 787 785 782 777 773 768 762 757 755 756 755 752 749 745 742 739 735 732 729 725 721 719 716 715 712 711 711 710 711 712
821 819 818 816 813 811 810 808 806 804 801 797 794 792 789 786 782 778 773 769 768 766 764 762 760 756 752 749 746 743 740 737 732 728 726 725 723 722 719 718 718 716 717
823 823 821 819 817 815 814 811 809 807 804 801 798 795 792 788 784 781 779 777 774 772 770 767 764 762 758 755 751 748 745 741 738 735 733 731 730 727 725 725 724 723 723
827 827 826 823 822 820 818 816 814 811 808 805 803 800 796 793 790 787 785 782 780 778 774 771 768 765 762 759 756 753 750 747 744 742 739 737 734 732 731 730 729 728 727
831 830 828 826 824 822 820 818 816 813 811 808 805 802 799 797 794 792 789 787 785 783 779 776 773 769 765 762 759 756 753 750 748 745 742 740 739 737 735 734 733 732 732
832 831 829 827 826 824 822 820 817 815 812 809 806 803 800 798 796 794 792 790 787 785 782 779 777 774 770 766 762 758 755 753 751 748 746 743 741 740 739 737 736 736 735
832 831 829 828 826 824 822 820 818 815 812 810 807 804 802 799 796 794 791 789 788 786 783 781 779 776 772 769 765 762 758 755 752 750 748 746 744 742 741 740 740 739 739
833 831 830 828 827 825 822 820 818 816 813 809 806 803 801 799 796 794 792 789 787 785 783 780 778 776 773 770 767 764 761 757 754 752 750 749 747 745 745 744 743 742 742
833 832 831 830 828 826 824 822 819 817 814 811 808 805 801 798 795 793 791 789 787 785 782 780 777 775 773 771 768 766 762 759 756 754 753 751 749 748 747 747 746 745 745
Wind_Speed
25 25 25 25 24 25 25 27 28 29 31 30 33 33 30 31 29 32 32 29 31 32 30 34 37 39 35 31 29 29 27 26 9 12 24 28 20 27 27 35 35 31 30
22 21 22 23 25 26 26 27 30 30 29 29 30 31 27 29 23 27 33 29 28 29 31 33 37 33 33 30 26 22 26 27 19 5 19 22 23 27 27 30 33 35 35
22 22 23 26 27 27 29 30 31 31 30 31 30 30 31 30 25 13 19 24 28 31 33 35 36 31 24 22 22 22 22 26 27 20 12 17 23 22 24 26 29 32 36
21 23 25 26 27 28 29 32 32 31 31 32 31 30 30 30 29 23 12 13 13 28 32 37 32 33 24 21 24 25 31 33 26 21 17 15 17 20 24 23 22 29 32
22 24 26 26 27 29 30 30 31 33 33 33 32 31 34 28 33 28 14 13 23 33 24 25 27 31 31 38 32 33 33 29 24 19 12 11 14 12 21 17 18 25 26
22 25 25 25 27 27 31 33 32 32 33 34 36 34 35 34 34 33 13 13 11 18 13 18 11 20 23 29 31 27 29 24 18 16 15 14 18 17 20 22 19 8 3
24 26 26 27 28 30 30 30 33 34 35 34 35 35 38 40 38 35 33 31 32 29 29 14 10 8 12 17 22 26 23 25 26 23 19 18 18 24 25 22 27 21 15
28 27 28 28 27 28 29 30 33 30 31 32 36 37 38 47 45 36 35 37 37 39 40 31 20 13 7 3 14 21 18 14 16 16 18 17 19 23 26 34 33 21 14
26 25 26 27 28 28 29 27 28 30 31 32 34 38 38 39 46 44 35 30 32 37 38 36 35 26 18 6 4 12 18 14 8 9 10 12 17 23 23 23 26 21 4
21 23 28 25 29 29 29 26 28 30 29 30 32 36 35 37 44 44 38 33 33 28 31 36 36 32 29 16 8 4 8 11 8 6 4 1 5 11 17 25 33 22 9
16 26 29 29 27 28 27 31 31 29 28 30 31 33 37 37 39 40 40 36 29 27 29 31 33 31 30 30 25 18 14 7 12 11 10 8 6 4 5 10 21 23 18
23 21 26 29 26 28 28 27 30 29 29 28 29 30 32 36 37 36 34 32 30 30 29 29 29 28 34 29 27 19 18 14 13 16 16 15 13 10 9 6 8 15 22
21 22 21 23 27 26 24 26 28 28 27 27 27 27 29 32 35 35 32 30 28 28 26 25 28 32 32 33 32 28 25 22 21 20 18 18 13 10 8 13 13 11 11
20 22 22 21 20 23 22 23 26 27 24 26 25 27 28 30 32 34 32 31 30 28 28 29 29 30 31 32 32 30 28 27 23 21 16 16 13 14 12 11 15 17 22
17 19 19 19 20 19 20 21 24 28 26 24 26 25 28 30 32 29 32 31 27 26 28 30 31 29 27 27 28 29 27 25 23 21 20 18 18 18 15 11 11 10 13
14 16 20 21 23 22 21 19 19 24 25 25 26 27 27 27 27 27 26 29 29 24 29 27 26 26 26 25 24 23 25 23 21 19 19 19 19 18 17 17 19 17 17
23 21 24 25 24 23 23 21 20 25 26 26 26 25 26 26 28 27 23 23 27 29 26 25 24 24 24 24 24 23 21 21 19 19 18 17 15 15 16 18 16 15 16
22 21 21 23 23 23 24 23 19 23 23 27 27 25 24 25 27 28 26 27 29 29 26 24 23 23 24 24 24 24 24 22 21 19 18 16 13 12 13 13 15 14 14
20 21 21 20 22 22 21 21 21 19 19 19 22 23 23 24 26 28 31 32 26 24 21 22 24 24 24 23 22 21 20 21 20 20 18 14 12 10 10 11 12 13 13
19 19 20 20 21 21 21 20 19 22 21 21 17 20 22 25 26 26 28 28 27 26 22 22 23 22 21 21 20 19 19 20 20 19 18 15 12 10 7 6 7 8 9
16 16 17 18 19 18 19 19 19 19 20 20 20 20 18 19 19 19 20 22 22 23 23 22 21 19 19 19 19 19 18 18 18 17 16 14 12 11 9 9 9 8 9
14 15 15 15 15 16 15 15 16 16 15 16 18 18 16 17 15 14 14 16 16 18 20 20 22 21 19 19 19 20 18 16 16 16 14 11 9 6 6 8 9 10 10
12 13 13 14 14 14 14 13 14 14 14 13 14 13 13 14 15 13 10 13 14 15 17 16 18 20 19 18 17 18 18 15 14 13 13 10 7 4 4 5 7 9 8
11 12 14 14 15 16 16 17 18 17 16 15 14 11 11 12 12 12 12 10 9 12 14 13 12 15 17 17 18 19 19 15 12 9 9 9 5 4 3 5 6 6 7
11 12 13 14 15 15 16 17 17 19 21 22 19 14 11 12 11 11 12 8 7 9 12 13 12 12 14 15 15 18 19 16 13 9 7 6 4 3 3 3 3 4 3
10 11 11 12 14 15 14 14 16 18 20 20 22 22 21 17 14 12 11 9 9 11 13 13 12 11 14 14 12 15 17 13 11 9 8 7 4 2 3 3 4 4 4
Wind_Direction
8 2 357 355 352 352 350 345 341 339 340 335 329 323 319 310 271 251 244 233 230 235 228 216 216 215 211 210 208 207 205 200 196 196 216 214 216 216 220 225 223 222 219
10 4 360 359 1 360 357 353 354 348 347 344 341 335 335 331 315 253 240 227 238 222 219 217 221 214 212 216 204 202 213 213 202 164 198 206 209 217 220 220 219 223 225
11 10 8 8 7 6 3 2 4 358 355 356 353 347 348 347 338 340 250 240 247 237 222 218 216 208 199 197 201 205 218 215 210 185 179 197 204 209 211 220 214 220 228
13 14 13 13 11 12 9 13 11 8 5 3 3 356 357 357 353 332 308 257 259 244 227 217 214 213 218 216 213 236 246 235 201 194 171 176 190 213 205 199 199 214 223
19 19 15 11 15 14 12 11 12 15 15 13 7 4 7 6 5 352 324 293 266 278 220 210 197 193 211 223 216 218 209 205 187 180 167 178 191 183 198 197 198 206 212
22 20 16 14 16 15 19 21 17 16 16 15 16 13 13 12 11 29 28 51 54 19 172 178 165 181 207 220 226 211 200 181 182 185 175 200 200 200 199 185 184 172 207
27 23 18 18 17 20 22 21 18 18 19 16 13 14 20 18 20 30 44 60 59 42 33 50 100 132 176 191 204 201 188 194 196 194 187 199 195 206 204 194 194 195 203
33 27 21 18 17 18 24 26 26 18 19 17 20 20 23 24 24 26 37 50 53 50 39 30 41 52 62 192 169 155 157 164 175 186 194 187 195 202 211 219 214 189 181
31 28 26 22 24 20 20 18 25 26 18 16 19 20 20 23 27 30 36 39 46 52 49 37 38 35 33 3 134 147 140 126 135 168 198 226 239 239 227 218 179 163 132
32 33 37 28 30 27 25 18 31 31 25 19 20 22 20 20 26 33 33 34 37 38 43 37 41 36 40 44 53 68 63 109 129 134 143 212 262 254 227 213 206 186 138
33 39 41 40 30 32 30 31 32 31 26 23 21 20 21 21 23 31 36 37 33 34 36 36 35 36 47 46 48 45 51 54 96 104 91 84 76 107 181 195 201 196 171
47 41 37 42 37 34 34 31 33 32 29 24 21 20 20 21 23 25 30 36 38 40 35 34 39 39 47 49 50 42 60 54 69 85 82 65 63 63 76 111 179 192 202
47 42 38 36 41 40 36 34 32 28 27 25 24 20 18 20 21 23 25 29 39 41 40 42 46 50 51 51 51 49 59 54 46 48 53 62 60 71 94 100 105 124 152
42 40 38 38 31 42 44 44 37 30 28 24 20 20 17 20 23 22 22 25 34 40 40 44 45 47 50 51 50 48 47 48 49 50 40 67 71 70 71 96 104 111 110
41 39 36 33 36 38 46 48 43 40 37 30 25 31 24 21 19 23 26 28 28 35 42 37 31 29 29 28 31 39 41 43 39 49 53 41 57 60 57 72 93 92 95
37 37 39 40 42 42 43 48 45 44 41 39 36 38 35 28 23 23 27 30 32 36 40 33 29 25 23 20 22 24 31 30 37 42 50 56 50 56 57 66 79 83 89
52 54 48 45 46 45 45 49 40 39 44 40 36 35 33 27 26 26 28 35 36 39 39 31 27 24 20 18 16 20 19 30 37 40 42 48 56 64 68 64 67 73 71
56 58 52 50 51 51 49 49 48 43 37 36 36 34 32 31 30 30 30 39 35 36 37 30 23 20 19 18 20 20 25 31 35 36 36 37 46 65 70 71 71 74 74
59 53 47 48 48 45 44 43 40 37 33 36 32 33 34 33 34 35 36 41 37 31 28 28 27 25 24 23 23 25 28 29 32 36 34 33 38 49 67 83 88 91 88
58 49 45 45 42 41 40 35 27 30 29 24 28 27 22 24 32 34 35 36 35 33 28 23 21 21 21 22 22 23 24 26 27 30 32 35 38 52 78 98 85 81 83
57 51 49 49 46 44 43 40 37 33 28 26 23 22 20 21 20 27 32 32 29 27 23 24 18 12 16 18 18 17 17 19 21 21 23 28 32 47 63 91 106 107 116
53 51 47 44 40 36 36 33 29 31 32 28 23 21 24 31 17 10 20 28 26 25 23 21 23 19 12 6 6 5 2 3 7 10 12 19 21 36 58 83 100 106 111
46 41 38 33 27 23 15 10 12 8 5 8 11 12 18 19 17 15 8 12 16 17 15 16 19 16 15 16 14 8 4 359 358 359 4 13 28 31 35 84 98 103 107
41 36 37 35 31 24 22 24 20 15 1 345 348 351 357 360 3 11 7 357 5 7 1 0 3 10 17 14 13 14 11 4 351 348 2 14 34 69 78 84 81 89 93
34 31 34 33 32 26 22 25 26 20 19 17 5 344 330 339 346 350 348 357 352 347 351 354 347 351 359 6 4 2 1 1 359 359 351 356 27 65 67 73 59 63 105
32 33 38 33 30 28 29 22 21 18 18 15 18 20 20 15 1 340 326 332 337 343 349 349 349 340 341 346 349 354 355 353 357 2 12 13 352 45 97 111 96 91 92